Weather History for Greenwood, SC

Change the Weather History Date:

Sunday, April 21, 2013

  Actual Average (KAND) Record (KAND)
Temperature  
Mean Temperature 52 °F -  
Max Temperature 68 °F 75 °F 89 °F (1985)
Min Temperature 37 °F 51 °F 27 °F (1983)
Degree Days  
Heating Degree Days 14    
Growing Degree Days 2 (Base 50)    
Moisture  
Dew Point 39 °F    
Average Humidity 61    
Maximum Humidity 96    
Minimum Humidity 32    
Precipitation  
Precipitation 0.00 in - - ()
Sea Level Pressure  
Sea Level Pressure 30.34 in    
Wind  
Wind Speed 4 mph (ENE)    
Max Wind Speed 14 mph    
Max Gust Speed 24 mph    
Visibility 10 miles    
Events      
Averages and records for this station are not official NWS values.
T = Trace of Precipitation, MM = Missing Value Source: NWS Daily Summary

Daily Weather History Graph

Daily Weather History Graph

Search for Another Location

Airport:

Trip Planner

Search our weather history database for the weather conditions in past years. The results will help you decide how hot, cold, wet, or windy it might be!

Date:

Astronomy

Apr. 21, 2013 Rise Set
Actual Time 6:49 AM EDT 8:05 PM EDT
Civil Twilight 6:23 AM EDT 8:31 PM EDT
Nautical Twilight 5:52 AM EDT 9:02 PM EDT
Astronomical Twilight 5:20 AM EDT 9:35 PM EDT
Moon 3:59 PM EDT (4/21) 3:59 AM EDT (4/21)
Length of Visible Light 14h 07m
Length of Day
13h 15m
Waxing Gibbous, 79% of the Moon is Illuminated
Apr 21
Waxing Gibbous
Apr 25
Full
May 2
Last Quarter
May 9
New
May 18
First Quarter

Hourly Weather History & Observations

Time (EDT) Temp. Windchill Dew Point Humidity Pressure Visibility Wind Dir Wind Speed Gust Speed Precip Events Conditions
12:56 AM 42.1 °F - 39.9 °F 92% 30.27 in 10.0 mi Calm Calm - N/A   Clear
1:56 AM 42.1 °F - 39.9 °F 92% 30.28 in 10.0 mi Calm Calm - N/A   Clear
2:56 AM 41.0 °F - 39.0 °F 93% 30.28 in 10.0 mi Calm Calm - N/A   Clear
3:56 AM 39.0 °F - 37.9 °F 96% 30.29 in 10.0 mi Calm Calm - N/A   Clear
4:56 AM 39.0 °F - 37.0 °F 93% 30.30 in 10.0 mi Calm Calm - N/A   Clear
5:56 AM 39.0 °F - 37.0 °F 93% 30.32 in 10.0 mi Calm Calm - N/A   Clear
6:56 AM 37.9 °F - 36.0 °F 93% 30.35 in 10.0 mi Calm Calm - N/A   Clear
7:56 AM 44.1 °F 42.5 °F 37.9 °F 79% 30.38 in 10.0 mi North 3.5 mph - N/A   Clear
8:56 AM 48.9 °F - 39.9 °F 71% 30.40 in 10.0 mi NNE 6.9 mph - N/A   Clear
9:56 AM 55.9 °F - 39.9 °F 55% 30.40 in 10.0 mi Variable 6.9 mph - 0.00 in   Clear
10:56 AM 60.1 °F - 39.0 °F 46% 30.40 in 10.0 mi Variable 6.9 mph - 0.00 in   Clear
11:56 AM 63.0 °F - 37.0 °F 38% 30.38 in 10.0 mi East 11.5 mph 17.3 mph 0.00 in   Clear
12:56 PM 64.9 °F - 37.0 °F 36% 30.37 in 10.0 mi East 9.2 mph 20.7 mph N/A   Clear
1:56 PM 66.0 °F - 36.0 °F 33% 30.35 in 10.0 mi ENE 9.2 mph 19.6 mph 0.00 in   Clear
2:56 PM 66.9 °F - 36.0 °F 32% 30.35 in 10.0 mi ESE 13.8 mph 23.0 mph N/A   Clear
3:56 PM 66.9 °F - 37.9 °F 34% 30.32 in 10.0 mi East 11.5 mph 21.9 mph N/A   Partly Cloudy
4:56 PM 64.0 °F - 37.0 °F 37% 30.32 in 10.0 mi ENE 9.2 mph 24.2 mph N/A   Scattered Clouds
5:56 PM 66.0 °F - 39.0 °F 37% 30.31 in 10.0 mi Variable 6.9 mph - N/A   Mostly Cloudy
6:56 PM 64.0 °F - 39.0 °F 40% 30.33 in 10.0 mi ENE 6.9 mph - N/A   Partly Cloudy
7:56 PM 61.0 °F - 39.0 °F 44% 30.35 in 10.0 mi ENE 4.6 mph - N/A   Mostly Cloudy
8:56 PM 57.9 °F - 41.0 °F 53% 30.36 in 10.0 mi ENE 5.8 mph - N/A   Partly Cloudy
9:56 PM 55.0 °F - 41.0 °F 59% 30.37 in 10.0 mi NE 3.5 mph - N/A   Clear
10:56 PM 54.0 °F - 41.0 °F 62% 30.36 in 10.0 mi NE 6.9 mph - N/A   Clear
11:56 PM 53.1 °F - 41.0 °F 64% 30.36 in 10.0 mi NE 5.8 mph - N/A   Clear